Location: Newark
(44.2003°N, 3.2583°E)
Time: 16:24:01
(UTC+00:00)

Explorer 7 - Pass Details

Date: 23 October 2019
Orbit: 485 x 680 km, 50.3° (Epoch: 20 November)

Event Time Altitude Azimuth Distance (km) Brightness Sun altitude
Rises 08:33:43 0° 190° (S) 2,590 10.7 21.4°
Reaches altitude 10° 08:36:50 10° 164° (SSE) 1,684 10.5 21.8°
Maximum altitude 08:38:45 14° 133° (SE) 1,467 11.6 22.1°
Drops below altitude 10° 08:40:39 10° 102° (ESE) 1,669 10.4 22.3°
Sets 08:43:42 0° 76° (ENE) 2,548 10.6 22.7°
